Weather History for ZSSS - December, 2013

Change the Weather History Date:

Thursday, December 5, 2013

  Actual Average Record
Temperature  
Mean Temperature 52 °F -  
Max Temperature 62 °F 50 °F - ()
Min Temperature 42 °F 36 °F - ()
Degree Days  
Heating Degree Days 13    
Growing Degree Days 2 (Base 50)    
Moisture  
Dew Point 44 °F    
Average Humidity 74    
Maximum Humidity 88    
Minimum Humidity 58    
Precipitation  
Precipitation 0.00 in 0.05 in - ()
Sea Level Pressure  
Sea Level Pressure 30.14 in    
Wind  
Wind Speed 2 mph ()    
Max Wind Speed 9 mph    
Max Gust Speed -    
Visibility 1.4 miles    
Events Fog    
T = Trace of Precipitation, MM = Missing Value Source: Averaged Metar Reports

Daily Weather History Graph

Daily Weather History Graph

Search for Another Location

Airport or City:

Trip Planner

Search our weather history database for the weather conditions in past years. The results will help you decide how hot, cold, wet, or windy it might be!

Date:

Astronomy

Dec. 05, 2013 Rise Set
Actual Time 6:38 AM CST 4:51 PM CST
Civil Twilight 6:11 AM CST 5:18 PM CST
Nautical Twilight 5:41 AM CST 5:48 PM CST
Astronomical Twilight 5:12 AM CST 6:17 PM CST
Moon 8:32 AM CST (12/5) 7:26 PM CST (12/5)
Length of Visible Light 11h 06m
Length of Day
10h 13m
Waxing Crescent, 7% of the Moon is Illuminated
Dec 5
Waxing Crescent
Dec 9
First Quarter
Dec 17
Full
Dec 25
Last Quarter
Jan 1
New

Hourly Weather History & Observations

Time (CST) Temp. Windchill Dew Point Humidity Pressure Visibility Wind Dir Wind Speed Gust Speed Precip Events Conditions
12:00 AM 50.0 °F - 35.6 °F 58% 30.18 in 2.5 mi Calm Calm - N/A   Haze
12:30 AM 50.0 °F - 35.6 °F 58% 30.21 in 2.5 mi Variable 2.2 mph - N/A   Haze
1:00 AM 48.2 °F - 39.2 °F 71% 30.21 in 2.5 mi Calm Calm - N/A   Haze
1:30 AM 50.0 °F - 39.2 °F 66% 30.18 in 2.5 mi Calm Calm - N/A   Haze
2:00 AM 46.4 °F - 39.2 °F 76% 30.18 in 2.2 mi SSW 2.2 mph - N/A   Mist
2:30 AM 48.2 °F - 41.0 °F 76% 30.18 in 2.2 mi Calm Calm - N/A   Mist
3:00 AM 46.4 °F - 39.2 °F 76% 30.15 in 2.2 mi Calm Calm - N/A   Mist
3:30 AM 44.6 °F - 39.2 °F 81% 30.15 in 2.2 mi Calm Calm - N/A   Mist
4:00 AM 46.4 °F - 41.0 °F 81% 30.15 in 2.2 mi Calm Calm - N/A   Mist
4:30 AM 42.8 °F 40.2 °F 37.4 °F 81% 30.15 in 2.2 mi North 4.5 mph - N/A   Mist
5:00 AM 44.6 °F - 39.2 °F 81% 30.15 in 2.2 mi North 2.2 mph - N/A   Mist
5:30 AM 42.8 °F - 37.4 °F 81% 30.18 in 2.2 mi Calm Calm - N/A   Mist
6:00 AM 44.6 °F - 37.4 °F 76% 30.18 in 1.9 mi SW 2.2 mph - N/A   Mist
6:30 AM 44.6 °F - 39.2 °F 81% 30.18 in 1.2 mi SSW 2.2 mph - N/A   Mist
7:00 AM 42.8 °F 40.2 °F 39.2 °F 87% 30.21 in 1.0 mi SSW 4.5 mph - N/A   Mist
7:30 AM 46.4 °F - 41.0 °F 81% 30.21 in 1.0 mi Variable 2.2 mph - N/A   Mist
8:00 AM 50.0 °F - 42.8 °F 76% 30.21 in 1.0 mi Calm Calm - N/A   Mist
8:30 AM 51.8 °F - 44.6 °F 76% 30.21 in 1.0 mi South 4.5 mph - N/A   Mist
9:00 AM 53.6 °F - 44.6 °F 72% 30.21 in 1.0 mi SSE 4.5 mph - N/A   Mist
9:30 AM 55.4 °F - 44.6 °F 67% 30.21 in 1.2 mi South 8.9 mph - N/A   Haze
10:00 AM 57.2 °F - 46.4 °F 67% 30.18 in 1.2 mi South 6.7 mph - N/A   Haze
10:30 AM 57.2 °F - 48.2 °F 72% 30.18 in 1.2 mi South 8.9 mph - N/A   Haze
11:00 AM 55.4 °F - 50.0 °F 82% 30.18 in 0.9 mi South 8.9 mph - N/A   Mist
11:30 AM 57.2 °F - 50.0 °F 77% 30.15 in 0.9 mi SW 6.7 mph - N/A   Mostly Cloudy
12:00 PM 57.2 °F - 50.0 °F 77% 30.15 in 1.0 mi SSW 8.9 mph - N/A   Partly Cloudy
12:30 PM 59.0 °F - 48.2 °F 67% 30.12 in 1.0 mi WSW 4.5 mph - N/A   Haze
1:00 PM 60.8 °F - 48.2 °F 63% 30.12 in 1.2 mi Variable 2.2 mph - N/A   Haze
1:30 PM 60.8 °F - 48.2 °F 63% 30.09 in 1.2 mi SSW 4.5 mph - N/A   Haze
2:00 PM 62.6 °F - 48.2 °F 59% 30.09 in 1.2 mi SSW 6.7 mph - N/A   Haze
2:30 PM 62.6 °F - 48.2 °F 59% 30.09 in 1.2 mi SSW 4.5 mph - N/A   Haze
3:00 PM 60.8 °F - 48.2 °F 63% 30.09 in 1.4 mi South 4.5 mph - N/A   Haze
3:30 PM 60.8 °F - 48.2 °F 63% 30.09 in 1.4 mi SSW 4.5 mph - N/A   Haze
4:00 PM 60.8 °F - 48.2 °F 63% 30.09 in 1.4 mi SSW 4.5 mph - N/A   Haze
4:30 PM 59.0 °F - 46.4 °F 63% 30.09 in 1.4 mi SSW 4.5 mph - N/A   Haze
5:00 PM 57.2 °F - 46.4 °F 67% 30.09 in 1.2 mi South 4.5 mph - N/A   Haze
5:30 PM 57.2 °F - 46.4 °F 67% 30.09 in 1.4 mi Variable 2.2 mph - N/A   Haze
6:00 PM 55.4 °F - 46.4 °F 72% 30.09 in 1.6 mi SW 4.5 mph - N/A   Haze
6:30 PM 53.6 °F - 46.4 °F 77% 30.09 in 1.4 mi SW 2.2 mph - N/A   Mist
7:00 PM 51.8 °F - 46.4 °F 82% 30.09 in 1.2 mi South 2.2 mph - N/A   Mist
7:30 PM 53.6 °F - 46.4 °F 77% 30.09 in 1.1 mi Calm Calm - N/A   Mist
8:00 PM 53.6 °F - 46.4 °F 77% 30.09 in 1.1 mi Variable 2.2 mph - N/A   Mist
8:30 PM 51.8 °F - 44.6 °F 76% 30.12 in 1.0 mi Calm Calm - N/A   Mist
9:00 PM 50.0 °F - 44.6 °F 82% 30.09 in 0.9 mi South 4.5 mph - N/A   Mist
9:30 PM 51.8 °F - 48.2 °F 88% 30.09 in 0.6 mi SSE 6.7 mph - N/A   Mist
10:00 PM 51.8 °F - 48.2 °F 88% 30.09 in 0.6 mi Variable 2.2 mph - N/A Fog Fog
10:30 PM 51.8 °F - 48.2 °F 88% 30.09 in 0.5 mi Variable 2.2 mph - N/A Fog Fog
11:00 PM 51.8 °F - 48.2 °F 88% 30.09 in 0.5 mi West 2.2 mph - N/A Fog Fog
11:30 PM 51.8 °F - 48.2 °F 88% 30.09 in 0.5 mi West 4.5 mph - N/A Fog Fog